Location: Chillicothe
(39.7950°N, 93.5520°W)
Time: 13:47:28
(UTC-06:00)

BEESAT - Pass Details

Date: 23 November 2019
Orbit: 700 x 709 km, 98.6° (Epoch: 10 December)

Event Time Altitude Azimuth Distance (km) Brightness Sun altitude
Rises 03:56:43 0° 135° (SE) 3,076 ? -36.4°
Reaches altitude 10° 03:59:15 10° 123° (ESE) 2,162 ? -35.9°
Enters shadow 04:03:03 26° 69° (ENE) 1,366 ? -35.1°
